Find Starlink 34840

NORAD ID: 66406 Int'l Des: 2025-257 Owner: SPXS Country: US Constellation: starlink operational
LEOCIRCULAR

現在のビュー

3D地球を読み込み中...

Starlink 34840について

説明を読み込み中...

次回通過

Passes for default location (London). Set your location on the main map for personalized predictions.

高度履歴

Loading altitude history...

軌道要素

1 66406U 25257AC 26146.19321655 .00030555 00000-0 91142-3 0 9992
2 66406 53.1596 216.0202 0001801 111.9314 248.1881 15.34411579 31552
Epoch: May 26, 2026 • Age: 9 hours

現在のステータス

高度 463.1 km
速度 7.64 km/s
衛星直下点 20.66°N, 134.38°E
打ち上げ日 Nov 9, 2025
運用期間 0.5 years
タイプ internet

技術仕様

分類 Payload
質量 575.00 kg
乾燥質量 530.00 kg
総質量 575.00 kg
長さ 0.30 m
直径 4.10 m
スパン 29.00 m
形状 Box + pan
製造者 SPXS
バスタイプ Starlink V2MO
フェーズステータス In Orbit
所有者/国 SPXS/US

Most Searched